| time (UTC) | temp F | wind direction | speed MPH | gust MPH | rain 1hr in | rain 24hr in | rain mn in | humidity % | barometer mb |
| 20260510010917 | 61 | 266 | 0.0 | 0.0 | 0.00 | 0.00 | 0.00 | 81 | 1017.6 |
| 20260510010518 | 61 | 216 | 0.0 | 0.0 | 0.00 | 0.00 | 0.00 | 82 | 1017.6 |
| 20260510010421 | 61 | 300 | 0.0 | 0.0 | 0.00 | 0.00 | 0.00 | 81 | 1017.6 |
| 20260510010025 | 61 | 293 | 0.0 | 0.0 | 0.00 | 0.00 | 0.00 | 80 | 1017.6 |
| 20260510005931 | 62 | 305 | 0.0 | 0.0 | 0.00 | 0.00 | 0.00 | 81 | 1017.5 |
| 20260510005528 | 62 | 114 | 0.0 | 0.0 | 0.00 | 0.00 | 0.00 | 81 | 1017.4 |
| 20260510005434 | 62 | 66 | 0.0 | 0.0 | 0.00 | 0.00 | 0.00 | 81 | 1017.5 |
| 20260510005028 | 62 | 245 | 0.0 | 0.0 | 0.00 | 0.00 | 0.00 | 80 | 1017.4 |
| 20260510004928 | 62 | 226 | 0.0 | 0.0 | 0.00 | 0.00 | 0.00 | 80 | 1017.4 |
| 20260510004526 | 62 | 2 | 0.0 | 0.0 | 0.00 | 0.00 | 0.00 | 79 | 1017.4 |
| 20260510004429 | 62 | 82 | 0.0 | 0.0 | 0.00 | 0.00 | 0.00 | 79 | 1017.4 |
| 20260510004028 | 63 | 278 | 0.0 | 0.0 | 0.00 | 0.00 | 0.00 | 79 | 1017.4 |
| 20260510003931 | 63 | 75 | 0.0 | 0.0 | 0.00 | 0.00 | 0.00 | 79 | 1017.3 |
| 20260510003531 | 63 | 262 | 0.0 | 0.0 | 0.00 | 0.00 | 0.00 | 80 | 1017.3 |
| 20260510003433 | 63 | 352 | 0.0 | 0.0 | 0.00 | 0.00 | 0.00 | 80 | 1017.3 |
| 20260510003034 | 63 | 293 | 0.0 | 0.0 | 0.00 | 0.00 | 0.00 | 79 | 1017.3 |
| 20260510002915 | 63 | 257 | 0.0 | 0.0 | 0.00 | 0.00 | 0.00 | 79 | 1017.3 |
| 20260510002516 | 63 | 70 | 0.0 | 0.0 | 0.00 | 0.00 | 0.00 | 80 | 1017.4 |
| 20260510002418 | 63 | 53 | 0.0 | 0.0 | 0.00 | 0.00 | 0.00 | 79 | 1017.3 |
| 20260510002019 | 63 | 290 | 0.0 | 0.0 | 0.00 | 0.00 | 0.00 | 79 | 1017.4 |
| 20260510001920 | 63 | 295 | 0.0 | 0.0 | 0.00 | 0.00 | 0.00 | 79 | 1017.4 |
| 20260510001519 | 63 | 38 | 0.0 | 0.0 | 0.00 | 0.00 | 0.00 | 79 | 1017.3 |
| 20260510001422 | 63 | 219 | 0.0 | 0.0 | 0.00 | 0.00 | 0.00 | 79 | 1017.3 |
| 20260510001020 | 63 | 75 | 0.0 | 0.0 | 0.00 | 0.00 | 0.00 | 79 | 1017.3 |
| 20260510000922 | 63 | 131 | 0.0 | 0.0 | 0.00 | 0.00 | 0.00 | 79 | 1017.3 |
| 20260510000526 | 63 | 345 | 0.0 | 0.0 | 0.00 | 0.00 | 0.00 | 79 | 1017.4 |
| 20260510000427 | 64 | 86 | 0.0 | 0.0 | 0.00 | 0.00 | 0.00 | 79 | 1017.3 |
| 20260510000019 | 63 | 25 | 0.0 | 0.0 | 0.00 | 0.00 | 0.00 | 79 | 1017.4 |
| 20260509235921 | 63 | 292 | 0.0 | 0.0 | 0.00 | 0.00 | 0.00 | 79 | 1017.4 |
| 20260509235523 | 63 | 270 | 0.0 | 0.0 | 0.00 | 0.00 | 0.00 | 79 | 1017.4 |
| 20260509235425 | 63 | 48 | 0.0 | 0.0 | 0.00 | 0.00 | 0.00 | 78 | 1017.4 |
| 20260509235022 | 63 | 90 | 0.0 | 0.0 | 0.00 | 0.00 | 0.00 | 79 | 1017.4 |
| 20260509234928 | 63 | 268 | 0.0 | 0.0 | 0.00 | 0.00 | 0.00 | 79 | 1017.3 |
| 20260509234527 | 63 | 161 | 0.0 | 0.0 | 0.00 | 0.00 | 0.00 | 79 | 1017.3 |
| 20260509234430 | 63 | 200 | 0.0 | 0.0 | 0.00 | 0.00 | 0.00 | 80 | 1017.3 |
| 20260509234024 | 63 | 82 | 0.0 | 0.0 | 0.00 | 0.00 | 0.00 | 80 | 1017.4 |
| 20260509233927 | 63 | 227 | 0.0 | 0.0 | 0.00 | 0.00 | 0.00 | 80 | 1017.4 |
| 20260509233526 | 63 | 318 | 0.0 | 0.0 | 0.00 | 0.00 | 0.00 | 79 | 1017.5 |
| 20260509233427 | 63 | 283 | 0.0 | 0.0 | 0.00 | 0.00 | 0.00 | 79 | 1017.5 |
| 20260509233029 | 63 | 196 | 0.0 | 0.0 | 0.00 | 0.00 | 0.00 | 79 | 1017.4 |
| 20260509232928 | 63 | 249 | 0.0 | 0.0 | 0.00 | 0.00 | 0.00 | 79 | 1017.5 |
| 20260509232524 | 63 | 303 | 0.0 | 0.0 | 0.00 | 0.00 | 0.00 | 79 | 1017.5 |
| 20260509232427 | 63 | 77 | 0.0 | 0.0 | 0.00 | 0.00 | 0.00 | 79 | 1017.6 |
| 20260509232025 | 63 | 281 | 0.0 | 0.0 | 0.00 | 0.00 | 0.00 | 78 | 1017.6 |
| 20260509231927 | 64 | 297 | 0.0 | 0.0 | 0.00 | 0.00 | 0.00 | 77 | 1017.6 |
| 20260509231527 | 64 | 325 | 0.0 | 0.0 | 0.00 | 0.00 | 0.00 | 78 | 1017.6 |
| 20260509231429 | 64 | 254 | 0.0 | 0.0 | 0.00 | 0.00 | 0.00 | 77 | 1017.6 |
| 20260509231028 | 65 | 300 | 0.0 | 0.0 | 0.00 | 0.00 | 0.00 | 78 | 1017.6 |
| 20260509230930 | 65 | 304 | 0.0 | 0.0 | 0.00 | 0.00 | 0.00 | 77 | 1017.5 |
| 20260509230530 | 65 | 305 | 0.0 | 0.0 | 0.00 | 0.00 | 0.00 | 76 | 1017.6 |
| 20260509230430 | 65 | 285 | 0.0 | 0.0 | 0.00 | 0.00 | 0.00 | 77 | 1017.7 |
| 20260509230017 | 65 | 271 | 0.0 | 0.0 | 0.00 | 0.00 | 0.00 | 78 | 1017.6 |
| 20260509225917 | 65 | 296 | 0.0 | 0.0 | 0.00 | 0.00 | 0.00 | 77 | 1017.7 |
| 20260509225515 | 65 | 319 | 0.0 | 0.0 | 0.00 | 0.00 | 0.00 | 76 | 1017.8 |
| 20260509225417 | 65 | 290 | 0.0 | 0.0 | 0.00 | 0.00 | 0.00 | 76 | 1017.7 |
| 20260509225017 | 65 | 342 | 0.0 | 0.0 | 0.00 | 0.00 | 0.00 | 77 | 1017.7 |
| 20260509224919 | 65 | 268 | 0.0 | 0.0 | 0.00 | 0.00 | 0.00 | 77 | 1017.7 |
| 20260509224513 | 65 | 297 | 0.0 | 0.0 | 0.00 | 0.00 | 0.00 | 75 | 1017.8 |
| 20260509224419 | 65 | 13 | 0.0 | 0.0 | 0.00 | 0.00 | 0.00 | 75 | 1017.8 |
| 20260509224016 | 65 | 275 | 0.0 | 0.0 | 0.00 | 0.00 | 0.00 | 74 | 1017.8 |
| 20260509223921 | 65 | 266 | 0.0 | 0.0 | 0.00 | 0.00 | 0.00 | 74 | 1017.8 |
| 20260509223518 | 65 | 270 | 0.0 | 0.0 | 0.00 | 0.00 | 0.00 | 75 | 1017.6 |
| 20260509223420 | 65 | 300 | 0.0 | 0.0 | 0.00 | 0.00 | 0.00 | 74 | 1017.6 |
| 20260509223021 | 66 | 258 | 0.0 | 0.0 | 0.00 | 0.00 | 0.00 | 73 | 1017.7 |
| 20260509222920 | 66 | 268 | 0.0 | 0.0 | 0.00 | 0.00 | 0.00 | 73 | 1017.8 |
| 20260509222519 | 66 | 48 | 0.0 | 0.0 | 0.00 | 0.00 | 0.00 | 73 | 1017.7 |
| 20260509222420 | 66 | 245 | 0.0 | 0.0 | 0.00 | 0.00 | 0.00 | 73 | 1017.7 |
| 20260509222020 | 67 | 343 | 0.0 | 0.0 | 0.00 | 0.00 | 0.00 | 72 | 1017.7 |
| 20260509221921 | 67 | 321 | 0.0 | 0.0 | 0.00 | 0.00 | 0.00 | 73 | 1017.7 |
| 20260509221519 | 67 | 305 | 0.0 | 0.0 | 0.00 | 0.00 | 0.00 | 74 | 1017.6 |
| 20260509221417 | 67 | 102 | 0.0 | 0.0 | 0.00 | 0.00 | 0.00 | 73 | 1017.7 |
| 20260509221014 | 66 | 242 | 0.0 | 0.0 | 0.00 | 0.00 | 0.00 | 74 | 1017.6 |
| 20260509220914 | 66 | 357 | 0.0 | 0.0 | 0.00 | 0.00 | 0.00 | 73 | 1017.7 |
| 20260509220514 | 66 | 137 | 0.0 | 0.0 | 0.00 | 0.00 | 0.00 | 76 | 1017.7 |
| 20260509220417 | 66 | 138 | 0.0 | 0.0 | 0.00 | 0.00 | 0.00 | 74 | 1017.8 |
| 20260509220024 | 65 | 255 | 0.0 | 0.0 | 0.00 | 0.00 | 0.00 | 76 | 1017.9 |
| 20260509215922 | 65 | 246 | 0.0 | 0.0 | 0.00 | 0.00 | 0.00 | 76 | 1017.9 |
| 20260509215521 | 65 | 241 | 0.0 | 0.0 | 0.00 | 0.00 | 0.00 | 76 | 1018.0 |
| 20260509215422 | 65 | 278 | 0.0 | 0.0 | 0.00 | 0.00 | 0.00 | 77 | 1018.1 |
| 20260509215015 | 64 | 299 | 0.0 | 0.0 | 0.00 | 0.00 | 0.00 | 78 | 1018.3 |
| 20260509214921 | 64 | 338 | 0.0 | 0.0 | 0.00 | 0.00 | 0.00 | 77 | 1018.3 |
| 20260509214520 | 64 | 353 | 0.0 | 0.0 | 0.00 | 0.00 | 0.00 | 78 | 1018.4 |
| 20260509214427 | 64 | 97 | 0.0 | 0.0 | 0.00 | 0.00 | 0.00 | 77 | 1018.5 |
| 20260509214020 | 64 | 268 | 0.0 | 0.0 | 0.00 | 0.00 | 0.00 | 78 | 1018.4 |
| 20260509213921 | 64 | 231 | 0.0 | 0.0 | 0.00 | 0.00 | 0.00 | 78 | 1018.4 |
| 20260509213521 | 64 | 292 | 0.0 | 0.0 | 0.00 | 0.00 | 0.00 | 78 | 1018.5 |
| 20260509213419 | 64 | 295 | 0.0 | 0.0 | 0.00 | 0.00 | 0.00 | 77 | 1018.6 |
| 20260509213018 | 64 | 319 | 0.0 | 0.0 | 0.00 | 0.00 | 0.00 | 78 | 1018.5 |
| 20260509212917 | 64 | 148 | 0.0 | 0.0 | 0.00 | 0.00 | 0.00 | 77 | 1018.5 |
| 20260509212516 | 64 | 303 | 0.0 | 0.0 | 0.00 | 0.00 | 0.00 | 78 | 1018.5 |
| 20260509212417 | 64 | 89 | 0.0 | 0.0 | 0.00 | 0.00 | 0.00 | 79 | 1018.5 |
| 20260509212016 | 64 | 69 | 0.0 | 0.0 | 0.00 | 0.00 | 0.00 | 78 | 1018.6 |
| 20260509211919 | 64 | 128 | 0.0 | 0.0 | 0.00 | 0.00 | 0.00 | 78 | 1018.6 |
| 20260509211518 | 64 | 279 | 0.0 | 0.0 | 0.00 | 0.00 | 0.00 | 79 | 1018.6 |
| 20260509211418 | 64 | 129 | 0.0 | 0.0 | 0.00 | 0.00 | 0.00 | 78 | 1018.7 |
| 20260509211019 | 64 | 106 | 0.0 | 0.0 | 0.00 | 0.00 | 0.00 | 77 | 1018.7 |
| 20260509210921 | 64 | 73 | 0.0 | 0.0 | 0.00 | 0.00 | 0.00 | 77 | 1018.7 |
| 20260509210521 | 65 | 264 | 0.0 | 0.0 | 0.00 | 0.00 | 0.00 | 78 | 1018.8 |
| 20260509210422 | 64 | 330 | 0.0 | 0.0 | 0.00 | 0.00 | 0.00 | 78 | 1018.8 |
| 20260509210032 | 64 | 256 | 0.0 | 0.0 | 0.00 | 0.00 | 0.00 | 78 | 1018.8 |
| 20260509205932 | 64 | 195 | 0.0 | 0.0 | 0.00 | 0.00 | 0.00 | 79 | 1018.8 |
| 20260509205530 | 63 | 265 | 0.0 | 0.0 | 0.00 | 0.00 | 0.00 | 79 | 1018.8 |
| 20260509205430 | 63 | 320 | 0.0 | 0.0 | 0.00 | 0.00 | 0.00 | 78 | 1018.7 |
| 20260509205027 | 63 | 161 | 0.0 | 0.0 | 0.00 | 0.00 | 0.00 | 80 | 1018.7 |
| 20260509204930 | 63 | 285 | 0.0 | 0.0 | 0.00 | 0.00 | 0.00 | 80 | 1018.8 |
| 20260509204524 | 63 | 153 | 0.0 | 0.0 | 0.00 | 0.00 | 0.00 | 79 | 1018.9 |
| 20260509204430 | 63 | 318 | 0.0 | 0.0 | 0.00 | 0.00 | 0.00 | 79 | 1018.8 |
| 20260509204026 | 63 | 53 | 0.0 | 0.0 | 0.00 | 0.00 | 0.00 | 78 | 1018.9 |
| 20260509203928 | 63 | 119 | 0.0 | 0.0 | 0.00 | 0.00 | 0.00 | 78 | 1018.9 |
| 20260509203528 | 64 | 274 | 0.0 | 0.0 | 0.00 | 0.00 | 0.00 | 78 | 1018.9 |
| 20260509203430 | 64 | 318 | 0.0 | 0.0 | 0.00 | 0.00 | 0.00 | 78 | 1018.9 |
| 20260509203033 | 64 | 8 | 0.0 | 0.0 | 0.00 | 0.00 | 0.00 | 78 | 1018.9 |
| 20260509202931 | 64 | 314 | 0.0 | 0.0 | 0.00 | 0.00 | 0.00 | 79 | 1018.9 |
| 20260509202529 | 63 | 145 | 0.0 | 0.0 | 0.00 | 0.00 | 0.00 | 80 | 1019.0 |
| 20260509202430 | 63 | 145 | 0.0 | 0.0 | 0.00 | 0.00 | 0.00 | 80 | 1019.0 |
| 20260509202030 | 62 | 126 | 0.0 | 0.0 | 0.00 | 0.00 | 0.00 | 80 | 1019.0 |
| 20260509201932 | 62 | 298 | 0.0 | 0.0 | 0.00 | 0.00 | 0.00 | 80 | 1019.0 |
| 20260509201531 | 61 | 234 | 0.0 | 0.0 | 0.00 | 0.00 | 0.00 | 80 | 1018.9 |
| 20260509201413 | 61 | 171 | 0.0 | 0.0 | 0.00 | 0.00 | 0.00 | 79 | 1018.9 |
| 20260509201016 | 62 | 238 | 0.0 | 0.0 | 0.00 | 0.00 | 0.00 | 78 | 1018.9 |
| 20260509200918 | 62 | 259 | 0.0 | 0.0 | 0.00 | 0.00 | 0.00 | 78 | 1019.0 |
| 20260509200520 | 63 | 282 | 0.0 | 0.0 | 0.00 | 0.00 | 0.00 | 78 | 1019.0 |
| 20260509200421 | 63 | 55 | 0.0 | 0.0 | 0.00 | 0.00 | 0.00 | 78 | 1019.0 |
| 20260509200033 | 63 | 58 | 0.0 | 0.0 | 0.00 | 0.00 | 0.00 | 78 | 1019.1 |
| 20260509195934 | 63 | 151 | 0.0 | 0.0 | 0.00 | 0.00 | 0.00 | 77 | 1019.0 |
| 20260509195533 | 63 | 163 | 0.0 | 0.0 | 0.00 | 0.00 | 0.00 | 78 | 1019.1 |
| 20260509195416 | 63 | 352 | 0.0 | 0.0 | 0.00 | 0.00 | 0.00 | 79 | 1019.0 |
| 20260509195018 | 63 | 50 | 0.0 | 0.0 | 0.00 | 0.00 | 0.00 | 78 | 1019.0 |
| 20260509194920 | 63 | 110 | 0.0 | 0.0 | 0.00 | 0.00 | 0.00 | 79 | 1019.0 |
| 20260509194520 | 62 | 263 | 0.0 | 0.0 | 0.00 | 0.00 | 0.00 | 79 | 1019.1 |
| 20260509194422 | 62 | 283 | 0.0 | 0.0 | 0.00 | 0.00 | 0.00 | 79 | 1019.1 |
| 20260509194017 | 62 | 328 | 0.0 | 0.0 | 0.00 | 0.00 | 0.00 | 78 | 1019.1 |
| 20260509193922 | 62 | 32 | 0.0 | 0.0 | 0.00 | 0.00 | 0.00 | 78 | 1019.1 |
| 20260509193517 | 62 | 264 | 0.0 | 0.0 | 0.00 | 0.00 | 0.00 | 77 | 1019.1 |
| 20260509193420 | 62 | 46 | 0.0 | 0.0 | 0.00 | 0.00 | 0.00 | 77 | 1019.1 |
| 20260509193015 | 63 | 91 | 0.0 | 0.0 | 0.00 | 0.00 | 0.00 | 77 | 1019.1 |
| 20260509192936 | 63 | 260 | 0.0 | 0.0 | 0.00 | 0.00 | 0.00 | 76 | 1019.1 |
| 20260509192533 | 64 | 278 | 0.0 | 0.0 | 0.00 | 0.00 | 0.00 | 75 | 1019.1 |
| 20260509192430 | 64 | 285 | 0.0 | 0.0 | 0.00 | 0.00 | 0.00 | 74 | 1019.0 |
| 20260509192026 | 65 | 281 | 0.0 | 0.0 | 0.00 | 0.00 | 0.00 | 73 | 1019.1 |
| 20260509191926 | 65 | 264 | 0.0 | 0.0 | 0.00 | 0.00 | 0.00 | 74 | 1019.2 |
| 20260509191524 | 66 | 285 | 0.0 | 0.0 | 0.00 | 0.00 | 0.00 | 74 | 1019.3 |
| 20260509191426 | 66 | 65 | 0.0 | 0.0 | 0.00 | 0.00 | 0.00 | 76 | 1019.4 |
| 20260509191022 | 65 | 294 | 0.0 | 0.0 | 0.00 | 0.00 | 0.00 | 75 | 1019.4 |
| 20260509190922 | 65 | 245 | 0.0 | 0.0 | 0.00 | 0.00 | 0.00 | 75 | 1019.4 |
| 20260509190522 | 65 | 149 | 0.0 | 0.0 | 0.00 | 0.00 | 0.00 | 75 | 1019.4 |
| 20260509190426 | 65 | 298 | 0.0 | 0.0 | 0.00 | 0.00 | 0.00 | 75 | 1019.4 |
| 20260509190037 | 64 | 51 | 0.0 | 0.0 | 0.00 | 0.00 | 0.00 | 77 | 1019.6 |
| 20260509185932 | 64 | 317 | 0.0 | 0.0 | 0.00 | 0.00 | 0.00 | 75 | 1019.6 |
| 20260509185532 | 64 | 59 | 0.0 | 0.0 | 0.00 | 0.00 | 0.00 | 76 | 1019.6 |
| 20260509185432 | 64 | 205 | 0.0 | 0.0 | 0.00 | 0.00 | 0.00 | 77 | 1019.7 |
| 20260509185024 | 64 | 311 | 0.0 | 0.0 | 0.00 | 0.00 | 0.00 | 76 | 1019.7 |
| 20260509184930 | 64 | 49 | 0.0 | 0.0 | 0.00 | 0.00 | 0.00 | 76 | 1019.6 |
| 20260509184526 | 64 | 175 | 0.0 | 0.0 | 0.00 | 0.00 | 0.00 | 76 | 1019.6 |
| 20260509184432 | 64 | 273 | 0.0 | 0.0 | 0.00 | 0.00 | 0.00 | 76 | 1019.6 |
| 20260509184028 | 63 | 355 | 0.0 | 0.0 | 0.00 | 0.00 | 0.00 | 77 | 1019.7 |
| 20260509183928 | 63 | 279 | 0.0 | 0.0 | 0.00 | 0.00 | 0.00 | 78 | 1019.7 |
| 20260509183528 | 63 | 258 | 0.0 | 0.0 | 0.00 | 0.00 | 0.00 | 77 | 1019.6 |
| 20260509183428 | 63 | 311 | 0.0 | 0.0 | 0.00 | 0.00 | 0.00 | 77 | 1019.7 |
| 20260509183027 | 62 | 44 | 0.0 | 0.0 | 0.00 | 0.00 | 0.00 | 78 | 1019.6 |
| 20260509182926 | 62 | 281 | 0.0 | 0.0 | 0.00 | 0.00 | 0.00 | 78 | 1019.7 |
| 20260509182523 | 62 | 98 | 0.0 | 0.0 | 0.00 | 0.00 | 0.00 | 78 | 1019.6 |
| 20260509182422 | 62 | 105 | 0.0 | 0.0 | 0.00 | 0.00 | 0.00 | 78 | 1019.6 |
| 20260509182020 | 62 | 264 | 0.0 | 0.0 | 0.00 | 0.00 | 0.00 | 77 | 1019.7 |
| 20260509181920 | 62 | 295 | 0.0 | 0.0 | 0.00 | 0.00 | 0.00 | 77 | 1019.7 |
| 20260509181516 | 62 | 140 | 0.0 | 0.0 | 0.00 | 0.00 | 0.00 | 78 | 1019.8 |
| 20260509181435 | 62 | 282 | 0.0 | 0.0 | 0.00 | 0.00 | 0.00 | 78 | 1019.8 |
| 20260509181032 | 62 | 269 | 0.0 | 0.0 | 0.00 | 0.00 | 0.00 | 76 | 1019.7 |
| 20260509180914 | 63 | 10 | 0.0 | 0.0 | 0.00 | 0.00 | 0.00 | 76 | 1019.7 |
| 20260509180514 | 63 | 104 | 0.0 | 0.0 | 0.00 | 0.00 | 0.00 | 76 | 1019.6 |
| 20260509180412 | 63 | 279 | 0.0 | 0.0 | 0.00 | 0.00 | 0.00 | 76 | 1019.7 |
| 20260509180022 | 63 | 322 | 0.0 | 0.0 | 0.00 | 0.00 | 0.00 | 74 | 1019.6 |
| 20260509175921 | 64 | 307 | 0.0 | 0.0 | 0.00 | 0.00 | 0.00 | 74 | 1019.6 |
| 20260509175520 | 64 | 291 | 0.0 | 0.0 | 0.00 | 0.00 | 0.00 | 76 | 1019.5 |
| 20260509175420 | 64 | 359 | 0.0 | 0.0 | 0.00 | 0.00 | 0.00 | 75 | 1019.4 |
| 20260509175014 | 63 | 134 | 0.0 | 0.0 | 0.00 | 0.00 | 0.00 | 77 | 1019.5 |
| 20260509174920 | 63 | 124 | 0.0 | 0.0 | 0.00 | 0.00 | 0.00 | 77 | 1019.5 |
| 20260509174516 | 62 | 258 | 0.0 | 0.0 | 0.00 | 0.00 | 0.00 | 77 | 1019.5 |
| 20260509174423 | 62 | 200 | 0.0 | 0.0 | 0.00 | 0.00 | 0.00 | 76 | 1019.5 |
| 20260509174019 | 62 | 290 | 0.0 | 0.0 | 0.00 | 0.00 | 0.00 | 75 | 1019.6 |
| 20260509173919 | 63 | 280 | 0.0 | 0.0 | 0.00 | 0.00 | 0.00 | 75 | 1019.6 |
| 20260509173513 | 63 | 246 | 0.0 | 0.0 | 0.00 | 0.00 | 0.00 | 77 | 1019.7 |
| 20260509173433 | 63 | 260 | 0.0 | 0.0 | 0.00 | 0.00 | 0.00 | 77 | 1019.7 |
| 20260509173033 | 62 | 300 | 0.0 | 0.0 | 0.00 | 0.00 | 0.00 | 77 | 1019.7 |
| 20260509172931 | 62 | 62 | 0.0 | 0.0 | 0.00 | 0.00 | 0.00 | 78 | 1019.8 |
| 20260509172528 | 62 | 75 | 0.0 | 0.0 | 0.00 | 0.00 | 0.00 | 78 | 1019.8 |
| 20260509172428 | 62 | 53 | 0.0 | 0.0 | 0.00 | 0.00 | 0.00 | 78 | 1019.8 |
| 20260509172026 | 62 | 67 | 0.0 | 0.0 | 0.00 | 0.00 | 0.00 | 78 | 1019.7 |
| 20260509171926 | 62 | 69 | 0.0 | 0.0 | 0.00 | 0.00 | 0.00 | 78 | 1019.6 |
| 20260509171525 | 61 | 202 | 0.0 | 0.0 | 0.00 | 0.00 | 0.00 | 78 | 1019.6 |
| 20260509171426 | 61 | 253 | 0.0 | 0.0 | 0.00 | 0.00 | 0.00 | 78 | 1019.7 |
| 20260509171028 | 62 | 269 | 0.0 | 0.0 | 0.00 | 0.00 | 0.00 | 78 | 1019.6 |
| 20260509170927 | 62 | 290 | 0.0 | 0.0 | 0.00 | 0.00 | 0.00 | 79 | 1019.5 |
| 20260509170525 | 61 | 295 | 0.0 | 0.0 | 0.00 | 0.00 | 0.00 | 80 | 1019.5 |
| 20260509170424 | 61 | 281 | 0.0 | 0.0 | 0.00 | 0.00 | 0.00 | 81 | 1019.5 |
| 20260509170013 | 60 | 348 | 0.0 | 0.0 | 0.00 | 0.00 | 0.00 | 81 | 1019.7 |
| 20260509165933 | 60 | 354 | 0.0 | 0.0 | 0.00 | 0.00 | 0.00 | 81 | 1019.7 |
| 20260509165527 | 60 | 310 | 0.0 | 0.0 | 0.00 | 0.00 | 0.00 | 82 | 1019.8 |
| 20260509165432 | 60 | 261 | 0.0 | 0.0 | 0.00 | 0.00 | 0.00 | 83 | 1019.7 |
| 20260509165029 | 59 | 289 | 0.0 | 0.0 | 0.00 | 0.00 | 0.00 | 85 | 1019.8 |
| 20260509164914 | 59 | 240 | 0.0 | 0.0 | 0.00 | 0.00 | 0.00 | 85 | 1019.7 |
| 20260509164527 | 58 | 20 | 0.0 | 0.0 | 0.00 | 0.00 | 0.00 | 86 | 1019.7 |
| 20260509164429 | 58 | 164 | 0.0 | 0.0 | 0.00 | 0.00 | 0.00 | 86 | 1019.7 |
| 20260509164027 | 57 | 237 | 0.0 | 0.0 | 0.00 | 0.00 | 0.00 | 86 | 1019.6 |
| 20260509163927 | 57 | 276 | 0.0 | 0.0 | 0.00 | 0.00 | 0.00 | 87 | 1019.6 |
| 20260509163525 | 57 | 74 | 0.0 | 0.0 | 0.00 | 0.00 | 0.00 | 90 | 1019.7 |
| 20260509163427 | 57 | 74 | 0.0 | 0.0 | 0.00 | 0.00 | 0.00 | 90 | 1019.7 |
| 20260509163030 | 56 | 253 | 0.0 | 0.0 | 0.00 | 0.00 | 0.00 | 92 | 1019.7 |
| 20260509162931 | 56 | 253 | 0.0 | 0.0 | 0.00 | 0.00 | 0.00 | 92 | 1019.8 |
| 20260509162531 | 56 | 290 | 0.0 | 0.0 | 0.00 | 0.00 | 0.00 | 93 | 1019.8 |
| 20260509162431 | 56 | 290 | 0.0 | 0.0 | 0.00 | 0.00 | 0.00 | 93 | 1019.8 |
| 20260509162027 | 55 | 298 | 0.0 | 0.0 | 0.00 | 0.00 | 0.00 | 94 | 1019.8 |
| 20260509161928 | 55 | 298 | 0.0 | 0.0 | 0.00 | 0.00 | 0.00 | 94 | 1019.7 |
| 20260509161528 | 55 | 245 | 0.0 | 0.0 | 0.00 | 0.00 | 0.00 | 94 | 1019.7 |
| 20260509161431 | 55 | 245 | 0.0 | 0.0 | 0.00 | 0.00 | 0.00 | 94 | 1019.7 |
| 20260509161030 | 54 | 285 | 0.0 | 0.0 | 0.00 | 0.00 | 0.00 | 94 | 1019.7 |
| 20260509160931 | 54 | 285 | 0.0 | 0.0 | 0.00 | 0.00 | 0.00 | 94 | 1019.7 |
| 20260509160533 | 53 | 294 | 0.0 | 0.0 | 0.00 | 0.00 | 0.00 | 94 | 1019.6 |
| 20260509160415 | 53 | 294 | 0.0 | 0.0 | 0.00 | 0.00 | 0.00 | 94 | 1019.6 |
| 20260509160024 | 53 | 294 | 0.0 | 0.0 | 0.00 | 0.00 | 0.00 | 94 | 1019.7 |
| 20260509155921 | 53 | 294 | 0.0 | 0.0 | 0.00 | 0.00 | 0.00 | 94 | 1019.7 |
| 20260509155516 | 53 | 294 | 0.0 | 0.0 | 0.00 | 0.00 | 0.00 | 94 | 1019.6 |
| 20260509155423 | 53 | 294 | 0.0 | 0.0 | 0.00 | 0.00 | 0.00 | 94 | 1019.6 |
| 20260509155015 | 52 | 294 | 0.0 | 0.0 | 0.00 | 0.00 | 0.00 | 94 | 1019.7 |
| 20260509154918 | 52 | 294 | 0.0 | 0.0 | 0.00 | 0.00 | 0.00 | 94 | 1019.7 |
| 20260509154516 | 52 | 63 | 0.0 | 0.0 | 0.00 | 0.00 | 0.00 | 94 | 1019.8 |
| 20260509154418 | 52 | 63 | 0.0 | 0.0 | 0.00 | 0.00 | 0.00 | 94 | 1019.8 |
| 20260509154018 | 51 | 62 | 0.0 | 0.0 | 0.00 | 0.00 | 0.00 | 94 | 1019.8 |
| 20260509153920 | 51 | 63 | 0.0 | 0.0 | 0.00 | 0.00 | 0.00 | 94 | 1019.8 |
| 20260509153520 | 51 | 63 | 0.0 | 0.0 | 0.00 | 0.00 | 0.00 | 93 | 1019.8 |
| 20260509153422 | 51 | 62 | 0.0 | 0.0 | 0.00 | 0.00 | 0.00 | 93 | 1019.9 |
| 20260509153021 | 50 | 62 | 0.0 | 0.0 | 0.00 | 0.00 | 0.00 | 93 | 1019.9 |
| 20260509152920 | 50 | 63 | 0.0 | 0.0 | 0.00 | 0.00 | 0.00 | 93 | 1019.9 |
| 20260509152521 | 50 | 63 | 0.0 | 0.0 | 0.00 | 0.00 | 0.00 | 93 | 1020.0 |
| 20260509152423 | 50 | 63 | 0.0 | 0.0 | 0.00 | 0.00 | 0.00 | 93 | 1020.0 |
| 20260509152025 | 50 | 63 | 0.0 | 0.0 | 0.00 | 0.00 | 0.00 | 93 | 1020.1 |
| 20260509151927 | 50 | 80 | 0.0 | 0.0 | 0.00 | 0.00 | 0.00 | 93 | 1020.1 |
| 20260509151527 | 50 | 80 | 0.0 | 0.0 | 0.00 | 0.00 | 0.00 | 93 | 1020.2 |
| 20260509151429 | 50 | 80 | 0.0 | 0.0 | 0.00 | 0.00 | 0.00 | 93 | 1020.2 |
| 20260509151027 | 49 | 80 | 0.0 | 0.0 | 0.00 | 0.00 | 0.00 | 93 | 1020.1 |
| 20260509150929 | 49 | 80 | 0.0 | 0.0 | 0.00 | 0.00 | 0.00 | 93 | 1020.1 |
| 20260509150529 | 49 | 80 | 0.0 | 0.0 | 0.00 | 0.00 | 0.00 | 93 | 1020.1 |
| 20260509150428 | 49 | 80 | 0.0 | 0.0 | 0.00 | 0.00 | 0.00 | 93 | 1020.0 |
| 20260509150019 | 49 | 80 | 0.0 | 0.0 | 0.00 | 0.00 | 0.00 | 93 | 1020.1 |
| 20260509145921 | 49 | 80 | 0.0 | 0.0 | 0.00 | 0.00 | 0.00 | 93 | 1020.1 |
| 20260509145516 | 49 | 80 | 0.0 | 0.0 | 0.00 | 0.00 | 0.00 | 93 | 1020.1 |
| 20260509145418 | 48 | 80 | 0.0 | 0.0 | 0.00 | 0.00 | 0.00 | 93 | 1020.1 |
| 20260509145016 | 48 | 80 | 0.0 | 0.0 | 0.00 | 0.00 | 0.00 | 93 | 1020.0 |
| 20260509144925 | 48 | 80 | 0.0 | 0.0 | 0.00 | 0.00 | 0.00 | 93 | 1020.0 |
| 20260509144520 | 48 | 80 | 0.0 | 0.0 | 0.00 | 0.00 | 0.00 | 93 | 1019.8 |
| 20260509144427 | 48 | 80 | 0.0 | 0.0 | 0.00 | 0.00 | 0.00 | 93 | 1019.9 |
| 20260509144020 | 47 | 80 | 0.0 | 0.0 | 0.00 | 0.00 | 0.00 | 93 | 1019.9 |
| 20260509143918 | 47 | 80 | 0.0 | 0.0 | 0.00 | 0.00 | 0.00 | 93 | 1020.0 |
| 20260509143518 | 47 | 80 | 0.0 | 0.0 | 0.00 | 0.00 | 0.00 | 93 | 1020.2 |
| 20260509143417 | 47 | 80 | 0.0 | 0.0 | 0.00 | 0.00 | 0.00 | 93 | 1020.3 |
| 20260509143014 | 47 | 80 | 0.0 | 0.0 | 0.00 | 0.00 | 0.00 | 93 | 1020.2 |
| 20260509142934 | 47 | 80 | 0.0 | 0.0 | 0.00 | 0.00 | 0.00 | 93 | 1020.2 |
| 20260509142532 | 47 | 80 | 0.0 | 0.0 | 0.00 | 0.00 | 0.00 | 93 | 1020.2 |
| 20260509142432 | 47 | 80 | 0.0 | 0.0 | 0.00 | 0.00 | 0.00 | 93 | 1020.3 |
| 20260509142032 | 46 | 80 | 0.0 | 0.0 | 0.00 | 0.00 | 0.00 | 93 | 1020.1 |
| 20260509141933 | 46 | 80 | 0.0 | 0.0 | 0.00 | 0.00 | 0.00 | 93 | 1020.1 |
| 20260509141530 | 46 | 80 | 0.0 | 0.0 | 0.00 | 0.00 | 0.00 | 93 | 1019.9 |
| 20260509141430 | 46 | 80 | 0.0 | 0.0 | 0.00 | 0.00 | 0.00 | 93 | 1019.9 |
| 20260509141026 | 46 | 80 | 0.0 | 0.0 | 0.00 | 0.00 | 0.00 | 93 | 1019.9 |
| 20260509140928 | 46 | 80 | 0.0 | 0.0 | 0.00 | 0.00 | 0.00 | 93 | 1020.0 |
| 20260509140528 | 45 | 80 | 0.0 | 0.0 | 0.00 | 0.00 | 0.00 | 93 | 1020.1 |
| 20260509140431 | 45 | 80 | 0.0 | 0.0 | 0.00 | 0.00 | 0.00 | 93 | 1020.1 |
| 20260509140025 | 45 | 80 | 0.0 | 0.0 | 0.00 | 0.00 | 0.00 | 93 | 1020.1 |
| 20260509135924 | 45 | 80 | 0.0 | 0.0 | 0.00 | 0.00 | 0.00 | 93 | 1020.1 |
| 20260509135524 | 45 | 80 | 0.0 | 0.0 | 0.00 | 0.00 | 0.00 | 93 | 1020.1 |
| 20260509135424 | 45 | 80 | 0.0 | 0.0 | 0.00 | 0.00 | 0.00 | 93 | 1020.1 |
| 20260509135017 | 45 | 80 | 0.0 | 0.0 | 0.00 | 0.00 | 0.00 | 93 | 1020.1 |
| 20260509134918 | 45 | 80 | 0.0 | 0.0 | 0.00 | 0.00 | 0.00 | 93 | 1020.1 |
| 20260509134514 | 45 | 80 | 0.0 | 0.0 | 0.00 | 0.00 | 0.00 | 93 | 1020.2 |
| 20260509134024 | 45 | 80 | 0.0 | 0.0 | 0.00 | 0.00 | 0.00 | 93 | 1020.2 |
| 20260509133926 | 45 | 80 | 0.0 | 0.0 | 0.00 | 0.00 | 0.00 | 93 | 1020.2 |
| 20260509133527 | 45 | 80 | 0.0 | 0.0 | 0.00 | 0.00 | 0.00 | 93 | 1020.1 |
| 20260509133429 | 45 | 80 | 0.0 | 0.0 | 0.00 | 0.00 | 0.00 | 93 | 1020.2 |
| 20260509133030 | 45 | 80 | 0.0 | 0.0 | 0.00 | 0.00 | 0.00 | 93 | 1020.3 |
| 20260509132932 | 45 | 80 | 0.0 | 0.0 | 0.00 | 0.00 | 0.00 | 93 | 1020.2 |
| 20260509132530 | 45 | 80 | 0.0 | 0.0 | 0.00 | 0.00 | 0.00 | 93 | 1020.3 |
| 20260509132429 | 45 | 80 | 0.0 | 0.0 | 0.00 | 0.00 | 0.00 | 93 | 1020.3 |
| 20260509132029 | 44 | 80 | 0.0 | 0.0 | 0.00 | 0.00 | 0.00 | 93 | 1020.2 |
| 20260509131912 | 44 | 80 | 0.0 | 0.0 | 0.00 | 0.00 | 0.00 | 93 | 1020.2 |
| 20260509131514 | 44 | 80 | 0.0 | 0.0 | 0.00 | 0.00 | 0.00 | 93 | 1020.2 |
| 20260509131434 | 44 | 80 | 0.0 | 0.0 | 0.00 | 0.00 | 0.00 | 93 | 1020.2 |
| 20260509131032 | 44 | 80 | 0.0 | 0.0 | 0.00 | 0.00 | 0.00 | 92 | 1020.4 |
| 20260509130934 | 44 | 80 | 0.0 | 0.0 | 0.00 | 0.00 | 0.00 | 92 | 1020.4 |
| 20260509130532 | 44 | 80 | 0.0 | 0.0 | 0.00 | 0.00 | 0.00 | 92 | 1020.4 |
| 20260509130412 | 44 | 80 | 0.0 | 0.0 | 0.00 | 0.00 | 0.00 | 92 | 1020.4 |
| 20260509130021 | 44 | 80 | 0.0 | 0.0 | 0.00 | 0.00 | 0.00 | 92 | 1020.4 |
| 20260509125921 | 44 | 80 | 0.0 | 0.0 | 0.00 | 0.00 | 0.00 | 92 | 1020.3 |
| 20260509125520 | 44 | 80 | 0.0 | 0.0 | 0.00 | 0.00 | 0.00 | 92 | 1020.4 |
| 20260509125422 | 44 | 80 | 0.0 | 0.0 | 0.00 | 0.00 | 0.00 | 92 | 1020.4 |
| 20260509125019 | 44 | 80 | 0.0 | 0.0 | 0.00 | 0.00 | 0.00 | 92 | 1020.4 |
| 20260509124926 | 44 | 80 | 0.0 | 0.0 | 0.00 | 0.00 | 0.00 | 92 | 1020.4 |
| 20260509124521 | 44 | 80 | 0.0 | 0.0 | 0.00 | 0.00 | 0.00 | 92 | 1020.5 |
| 20260509124426 | 44 | 80 | 0.0 | 0.0 | 0.00 | 0.00 | 0.00 | 92 | 1020.5 |
| 20260509124020 | 44 | 80 | 0.0 | 0.0 | 0.00 | 0.00 | 0.00 | 92 | 1020.5 |
| 20260509123923 | 44 | 80 | 0.0 | 0.0 | 0.00 | 0.00 | 0.00 | 92 | 1020.5 |
| 20260509123523 | 44 | 80 | 0.0 | 0.0 | 0.00 | 0.00 | 0.00 | 92 | 1020.5 |
| 20260509123424 | 44 | 80 | 0.0 | 0.0 | 0.00 | 0.00 | 0.00 | 92 | 1020.5 |
| 20260509123021 | 44 | 80 | 0.0 | 0.0 | 0.00 | 0.00 | 0.00 | 92 | 1020.6 |
| 20260509122920 | 44 | 80 | 0.0 | 0.0 | 0.00 | 0.00 | 0.00 | 92 | 1020.6 |
| 20260509122519 | 44 | 80 | 0.0 | 0.0 | 0.00 | 0.00 | 0.00 | 92 | 1020.7 |
| 20260509122421 | 44 | 80 | 0.0 | 0.0 | 0.00 | 0.00 | 0.00 | 92 | 1020.6 |
| 20260509122023 | 44 | 80 | 0.0 | 0.0 | 0.00 | 0.00 | 0.00 | 92 | 1020.6 |
| 20260509121925 | 44 | 80 | 0.0 | 0.0 | 0.00 | 0.00 | 0.00 | 92 | 1020.6 |
| 20260509121526 | 44 | 80 | 0.0 | 0.0 | 0.00 | 0.00 | 0.00 | 92 | 1020.8 |
| 20260509121428 | 44 | 80 | 0.0 | 0.0 | 0.00 | 0.00 | 0.00 | 92 | 1020.8 |
| 20260509121029 | 44 | 80 | 0.0 | 0.0 | 0.00 | 0.00 | 0.00 | 92 | 1020.7 |
| 20260509120928 | 44 | 80 | 0.0 | 0.0 | 0.00 | 0.00 | 0.00 | 92 | 1020.7 |
| 20260509120527 | 44 | 80 | 0.0 | 0.0 | 0.00 | 0.00 | 0.00 | 92 | 1020.8 |
| 20260509120429 | 44 | 80 | 0.0 | 0.0 | 0.00 | 0.00 | 0.00 | 92 | 1020.9 |
| 20260509120021 | 44 | 80 | 0.0 | 0.0 | 0.00 | 0.00 | 0.00 | 92 | 1020.9 |
| 20260509115921 | 45 | 80 | 0.0 | 0.0 | 0.00 | 0.00 | 0.00 | 92 | 1020.9 |
| 20260509115523 | 45 | 80 | 0.0 | 0.0 | 0.00 | 0.00 | 0.00 | 92 | 1021.0 |
| 20260509115424 | 45 | 80 | 0.0 | 0.0 | 0.00 | 0.00 | 0.00 | 92 | 1021.0 |
| 20260509115023 | 45 | 80 | 0.0 | 0.0 | 0.00 | 0.00 | 0.00 | 92 | 1021.0 |
| 20260509114926 | 45 | 80 | 0.0 | 0.0 | 0.00 | 0.00 | 0.00 | 92 | 1021.1 |
| 20260509114520 | 45 | 80 | 0.0 | 0.0 | 0.00 | 0.00 | 0.00 | 92 | 1020.9 |
| 20260509114423 | 45 | 80 | 0.0 | 0.0 | 0.00 | 0.00 | 0.00 | 92 | 1020.9 |
| 20260509114016 | 45 | 80 | 0.0 | 0.0 | 0.00 | 0.00 | 0.00 | 92 | 1020.9 |
| 20260509113920 | 45 | 80 | 0.0 | 0.0 | 0.00 | 0.00 | 0.00 | 92 | 1020.9 |
| 20260509113515 | 45 | 80 | 0.0 | 0.0 | 0.00 | 0.00 | 0.00 | 92 | 1021.1 |
| 20260509113434 | 45 | 80 | 0.0 | 0.0 | 0.00 | 0.00 | 0.00 | 92 | 1021.1 |
| 20260509113034 | 45 | 80 | 0.0 | 0.0 | 0.00 | 0.00 | 0.00 | 92 | 1021.1 |
| 20260509112915 | 45 | 80 | 0.0 | 0.0 | 0.00 | 0.00 | 0.00 | 92 | 1021.1 |
| 20260509112515 | 45 | 80 | 0.0 | 0.0 | 0.00 | 0.00 | 0.00 | 92 | 1021.1 |
| 20260509112418 | 45 | 80 | 0.0 | 0.0 | 0.00 | 0.00 | 0.00 | 92 | 1021.1 |
| 20260509112015 | 45 | 80 | 0.0 | 0.0 | 0.00 | 0.00 | 0.00 | 92 | 1021.2 |
| 20260509111915 | 44 | 80 | 0.0 | 0.0 | 0.00 | 0.00 | 0.00 | 92 | 1021.2 |
| 20260509111418 | 44 | 80 | 0.0 | 0.0 | 0.00 | 0.00 | 0.00 | 92 | 1021.1 |
| 20260509111020 | 44 | 80 | 0.0 | 0.0 | 0.00 | 0.00 | 0.00 | 92 | 1021.0 |
| 20260509110919 | 44 | 80 | 0.0 | 0.0 | 0.00 | 0.00 | 0.00 | 92 | 1021.0 |
| 20260509110523 | 44 | 80 | 0.0 | 0.0 | 0.00 | 0.00 | 0.00 | 92 | 1020.8 |
| 20260509110422 | 44 | 80 | 0.0 | 0.0 | 0.00 | 0.00 | 0.00 | 92 | 1020.8 |
| 20260509110034 | 44 | 80 | 0.0 | 0.0 | 0.00 | 0.00 | 0.00 | 92 | 1021.0 |
| 20260509105914 | 44 | 80 | 0.0 | 0.0 | 0.00 | 0.00 | 0.00 | 92 | 1020.9 |
| 20260509105514 | 44 | 80 | 0.0 | 0.0 | 0.00 | 0.00 | 0.00 | 92 | 1020.9 |
| 20260509105438 | 44 | 80 | 0.0 | 0.0 | 0.00 | 0.00 | 0.00 | 92 | 1020.9 |
| 20260509105029 | 44 | 80 | 0.0 | 0.0 | 0.00 | 0.00 | 0.00 | 92 | 1020.9 |
| 20260509104913 | 44 | 80 | 0.0 | 0.0 | 0.00 | 0.00 | 0.00 | 92 | 1020.9 |
| 20260509104528 | 45 | 80 | 0.0 | 0.0 | 0.00 | 0.00 | 0.00 | 92 | 1020.9 |
| 20260509104430 | 44 | 80 | 0.0 | 0.0 | 0.00 | 0.00 | 0.00 | 92 | 1020.9 |
| 20260509104030 | 45 | 80 | 0.0 | 0.0 | 0.00 | 0.00 | 0.00 | 92 | 1020.8 |
| 20260509103932 | 45 | 80 | 0.0 | 0.0 | 0.00 | 0.00 | 0.00 | 92 | 1020.9 |
| 20260509103529 | 45 | 80 | 0.0 | 0.0 | 0.00 | 0.00 | 0.00 | 92 | 1020.9 |
| 20260509103430 | 45 | 80 | 0.0 | 0.0 | 0.00 | 0.00 | 0.00 | 92 | 1021.0 |
| 20260509102951 | 50 | 339 | 0.0 | 0.0 | 0.00 | 0.00 | 0.00 | 1020.9 | |
| 20260509102532 | 50 | 339 | 0.0 | 0.0 | 0.00 | 0.00 | 0.00 | 1020.9 | |
| 20260509102434 | 50 | 339 | 0.0 | 0.0 | 0.00 | 0.00 | 0.00 | 1021.0 | |
| 20260509102029 | 50 | 339 | 0.0 | 0.0 | 0.00 | 0.00 | 0.00 | 1021.0 | |
| 20260509101930 | 50 | 339 | 0.0 | 0.0 | 0.00 | 0.00 | 0.00 | 1021.0 | |
| 20260509101529 | 50 | 339 | 0.0 | 0.0 | 0.00 | 0.00 | 0.00 | 1021.2 | |
| 20260509101431 | 50 | 339 | 0.0 | 0.0 | 0.00 | 0.00 | 0.00 | 1021.2 | |
| 20260509101026 | 50 | 339 | 0.0 | 0.0 | 0.00 | 0.00 | 0.00 | 1021.2 | |
| 20260509100932 | 50 | 339 | 0.0 | 0.0 | 0.00 | 0.00 | 0.00 | 1021.2 | |
| 20260509100527 | 50 | 339 | 0.0 | 0.0 | 0.00 | 0.00 | 0.00 | 1021.4 | |
| 20260509100430 | 50 | 339 | 0.0 | 0.0 | 0.00 | 0.00 | 0.00 | 1021.4 | |
| 20260509100016 | 50 | 339 | 0.0 | 0.0 | 0.00 | 0.00 | 0.00 | 1021.5 | |
| 20260509095917 | 50 | 339 | 0.0 | 0.0 | 0.00 | 0.00 | 0.00 | 1021.5 | |
| 20260509095518 | 50 | 339 | 0.0 | 0.0 | 0.00 | 0.00 | 0.00 | 1021.6 | |
| 20260509095419 | 50 | 339 | 0.0 | 0.0 | 0.00 | 0.00 | 0.00 | 1021.6 | |
| 20260509095020 | 50 | 339 | 0.0 | 0.0 | 0.00 | 0.00 | 0.00 | 1021.6 | |
| 20260509094921 | 51 | 339 | 0.0 | 0.0 | 0.00 | 0.00 | 0.00 | 1021.6 | |
| 20260509094519 | 51 | 339 | 0.0 | 0.0 | 0.00 | 0.00 | 0.00 | 1021.7 | |
| 20260509094422 | 51 | 339 | 0.0 | 0.0 | 0.00 | 0.00 | 0.00 | 1021.7 | |
| 20260509094022 | 51 | 339 | 0.0 | 0.0 | 0.00 | 0.00 | 0.00 | 1021.6 | |
| 20260509093923 | 51 | 339 | 0.0 | 0.0 | 0.00 | 0.00 | 0.00 | 1021.6 | |
| 20260509093525 | 51 | 339 | 0.0 | 0.0 | 0.00 | 0.00 | 0.00 | 1021.6 | |
| 20260509093424 | 51 | 339 | 0.0 | 0.0 | 0.00 | 0.00 | 0.00 | 1021.5 | |
| 20260509093025 | 51 | 338 | 0.0 | 0.0 | 0.00 | 0.00 | 0.00 | 1021.5 | |
| 20260509092926 | 51 | 339 | 0.0 | 0.0 | 0.00 | 0.00 | 0.00 | 1021.5 | |
| 20260509092524 | 54 | 339 | 0.0 | 0.0 | 0.00 | 0.00 | 0.00 | 1021.5 | |
| 20260509092425 | 54 | 338 | 0.0 | 0.0 | 0.00 | 0.00 | 0.00 | 1021.5 | |
| 20260509092026 | 52 | 339 | 0.0 | 0.0 | 0.00 | 0.00 | 0.00 | 1021.4 | |
| 20260509091927 | 52 | 339 | 0.0 | 0.0 | 0.00 | 0.00 | 0.00 | 1021.4 | |
| 20260509091526 | 52 | 339 | 0.0 | 0.0 | 0.00 | 0.00 | 0.00 | 1021.5 | |
| 20260509091426 | 52 | 339 | 0.0 | 0.0 | 0.00 | 0.00 | 0.00 | 1021.5 | |
| 20260509091020 | 52 | 339 | 0.0 | 0.0 | 0.00 | 0.00 | 0.00 | 1021.5 | |
| 20260509090927 | 52 | 339 | 0.0 | 0.0 | 0.00 | 0.00 | 0.00 | 1021.5 | |
| 20260509090525 | 52 | 339 | 0.0 | 0.0 | 0.00 | 0.00 | 0.00 | 1021.5 | |
| 20260509090430 | 52 | 339 | 0.0 | 0.0 | 0.00 | 0.00 | 0.00 | 1021.5 | |
| 20260509090014 | 52 | 338 | 0.0 | 0.0 | 0.00 | 0.00 | 0.00 | 1021.5 | |
| 20260509085915 | 52 | 337 | 0.0 | 0.0 | 0.00 | 0.00 | 0.00 | 1021.6 | |
| 20260509085420 | 52 | 333 | 0.0 | 0.0 | 0.00 | 0.00 | 0.00 | 1021.6 | |
| 20260509085020 | 52 | 333 | 0.0 | 0.0 | 0.00 | 0.00 | 0.00 | 1021.7 | |
| 20260509084921 | 52 | 333 | 0.0 | 0.0 | 0.00 | 0.00 | 0.00 | 1021.7 | |
| 20260509084519 | 52 | 333 | 0.0 | 0.0 | 0.00 | 0.00 | 0.00 | 1021.7 | |
| 20260509084419 | 52 | 333 | 0.0 | 0.0 | 0.00 | 0.00 | 0.00 | 1021.8 | |
| 20260509084019 | 52 | 331 | 0.0 | 0.0 | 0.00 | 0.00 | 0.00 | 1021.8 | |
| 20260509083921 | 52 | 330 | 0.0 | 0.0 | 0.00 | 0.00 | 0.00 | 1021.8 | |
| 20260509083520 | 52 | 290 | 0.0 | 0.0 | 0.00 | 0.00 | 0.00 | 1021.8 | |
| 20260509083420 | 52 | 290 | 0.0 | 0.0 | 0.00 | 0.00 | 0.00 | 1021.8 | |
| 20260509083020 | 52 | 290 | 0.0 | 0.0 | 0.00 | 0.00 | 0.00 | 1021.9 | |
| 20260509082920 | 52 | 290 | 0.0 | 0.0 | 0.00 | 0.00 | 0.00 | 1021.9 | |
| 20260509082520 | 52 | 290 | 0.0 | 0.0 | 0.00 | 0.00 | 0.00 | 1022.0 | |
| 20260509082423 | 52 | 290 | 0.0 | 0.0 | 0.00 | 0.00 | 0.00 | 1022.0 | |
| 20260509082023 | 52 | 290 | 0.0 | 0.0 | 0.00 | 0.00 | 0.00 | 1022.1 | |
| 20260509081924 | 52 | 290 | 0.0 | 0.0 | 0.00 | 0.00 | 0.00 | 1022.0 | |
| 20260509081519 | 52 | 290 | 0.0 | 0.0 | 0.00 | 0.00 | 0.00 | 1022.1 | |
| 20260509081423 | 52 | 290 | 0.0 | 0.0 | 0.00 | 0.00 | 0.00 | 1022.1 | |
| 20260509081018 | 52 | 290 | 0.0 | 0.0 | 0.00 | 0.00 | 0.00 | 1022.1 | |
| 20260509080923 | 52 | 290 | 0.0 | 0.0 | 0.00 | 0.00 | 0.00 | 1022.1 | |
| 20260509080519 | 52 | 290 | 0.0 | 0.0 | 0.00 | 0.00 | 0.00 | 1022.1 | |
| 20260509080417 | 52 | 290 | 0.0 | 0.0 | 0.00 | 0.00 | 0.00 | 1022.1 | |
| 20260509080029 | 52 | 290 | 0.0 | 0.0 | 0.00 | 0.00 | 0.00 | 1022.2 | |
| 20260509075927 | 52 | 290 | 0.0 | 0.0 | 0.00 | 0.00 | 0.00 | 1022.1 | |
| 20260509075526 | 52 | 290 | 0.0 | 0.0 | 0.00 | 0.00 | 0.00 | 1022.2 | |
| 20260509075428 | 52 | 290 | 0.0 | 0.0 | 0.00 | 0.00 | 0.00 | 1022.2 | |
| 20260509075027 | 52 | 290 | 0.0 | 0.0 | 0.00 | 0.00 | 0.00 | 1022.1 | |
| 20260509074928 | 52 | 290 | 0.0 | 0.0 | 0.00 | 0.00 | 0.00 | 1022.2 | |
| 20260509074528 | 52 | 290 | 0.0 | 0.0 | 0.00 | 0.00 | 0.00 | 1022.2 | |
| 20260509074431 | 52 | 290 | 0.0 | 0.0 | 0.00 | 0.00 | 0.00 | 1022.3 | |
| 20260509074029 | 52 | 290 | 0.0 | 0.0 | 0.00 | 0.00 | 0.00 | 1022.3 | |
| 20260509073912 | 52 | 290 | 0.0 | 0.0 | 0.00 | 0.00 | 0.00 | 1022.3 | |
| 20260509073517 | 52 | 290 | 0.0 | 0.0 | 0.00 | 0.00 | 0.00 | 1022.3 | |
| 20260509073418 | 52 | 290 | 0.0 | 0.0 | 0.00 | 0.00 | 0.00 | 1022.3 | |
| 20260509073018 | 52 | 290 | 0.0 | 0.0 | 0.00 | 0.00 | 0.00 | 1022.3 | |
| 20260509072919 | 52 | 290 | 0.0 | 0.0 | 0.00 | 0.00 | 0.00 | 1022.3 | |
| 20260509072519 | 52 | 290 | 0.0 | 0.0 | 0.00 | 0.00 | 0.00 | 1022.3 | |
| 20260509072419 | 52 | 290 | 0.0 | 0.0 | 0.00 | 0.00 | 0.00 | 1022.2 | |
| 20260509072016 | 52 | 290 | 0.0 | 0.0 | 0.00 | 0.00 | 0.00 | 1022.4 | |
| 20260509071923 | 52 | 290 | 0.0 | 0.0 | 0.00 | 0.00 | 0.00 | 1022.4 | |
| 20260509071518 | 53 | 290 | 0.0 | 0.0 | 0.00 | 0.00 | 0.00 | 1022.3 | |
| 20260509071422 | 53 | 290 | 0.0 | 0.0 | 0.00 | 0.00 | 0.00 | 1022.3 | |
| 20260509071020 | 53 | 290 | 0.0 | 0.0 | 0.00 | 0.00 | 0.00 | 1022.4 | |
| 20260509070920 | 53 | 290 | 0.0 | 0.0 | 0.00 | 0.00 | 0.00 | 1022.4 | |
| 20260509070519 | 53 | 290 | 0.0 | 0.0 | 0.00 | 0.00 | 0.00 | 1022.4 | |
| 20260509070423 | 53 | 290 | 0.0 | 0.0 | 0.00 | 0.00 | 0.00 | 1022.5 | |
| 20260509070036 | 53 | 290 | 0.0 | 0.0 | 0.00 | 0.00 | 0.00 | 1022.5 | |
| 20260509065929 | 53 | 290 | 0.0 | 0.0 | 0.00 | 0.00 | 0.00 | 1022.4 | |
| 20260509065528 | 53 | 290 | 0.0 | 0.0 | 0.00 | 0.00 | 0.00 | 1022.5 | |
| 20260509065431 | 53 | 290 | 0.0 | 0.0 | 0.00 | 0.00 | 0.00 | 1022.5 | |
| 20260509065032 | 53 | 290 | 0.0 | 0.0 | 0.00 | 0.00 | 0.00 | 1022.6 | |
| 20260509064914 | 53 | 290 | 0.0 | 0.0 | 0.00 | 0.00 | 0.00 | 1022.6 | |
| 20260509064514 | 53 | 290 | 0.0 | 0.0 | 0.00 | 0.00 | 0.00 | 1022.6 | |
| 20260509064416 | 54 | 290 | 0.0 | 0.0 | 0.00 | 0.00 | 0.00 | 1022.6 | |
| 20260509064015 | 54 | 290 | 0.0 | 0.0 | 0.00 | 0.00 | 0.00 | 1022.7 | |
| 20260509063915 | 54 | 290 | 0.0 | 0.0 | 0.00 | 0.00 | 0.00 | 1022.7 | |
| 20260509063516 | 54 | 290 | 0.0 | 0.0 | 0.00 | 0.00 | 0.00 | 1022.7 | |
| 20260509063416 | 54 | 290 | 0.0 | 0.0 | 0.00 | 0.00 | 0.00 | 1022.8 | |
| 20260509063017 | 54 | 290 | 0.0 | 0.0 | 0.00 | 0.00 | 0.00 | 1022.8 | |
| 20260509062920 | 54 | 290 | 0.0 | 0.0 | 0.00 | 0.00 | 0.00 | 1022.8 | |
| 20260509062516 | 54 | 290 | 0.0 | 0.0 | 0.00 | 0.00 | 0.00 | 1022.8 | |
| 20260509062418 | 54 | 290 | 0.0 | 0.0 | 0.00 | 0.00 | 0.00 | 1022.9 | |
| 20260509062014 | 54 | 290 | 0.0 | 0.0 | 0.00 | 0.00 | 0.00 | 1023.0 | |
| 20260509061920 | 54 | 290 | 0.0 | 0.0 | 0.00 | 0.00 | 0.00 | 1023.0 | |
| 20260509061516 | 54 | 290 | 0.0 | 0.0 | 0.00 | 0.00 | 0.00 | 1023.0 | |
| 20260509061422 | 54 | 290 | 0.0 | 0.0 | 0.00 | 0.00 | 0.00 | 1023.0 | |
| 20260509061021 | 54 | 290 | 0.0 | 0.0 | 0.00 | 0.00 | 0.00 | 1023.0 | |
| 20260509060923 | 54 | 290 | 0.0 | 0.0 | 0.00 | 0.00 | 0.00 | 1023.1 | |
| 20260509060526 | 54 | 290 | 0.0 | 0.0 | 0.00 | 0.00 | 0.00 | 1023.1 | |
| 20260509060427 | 54 | 290 | 0.0 | 0.0 | 0.00 | 0.00 | 0.00 | 1023.1 | |
| 20260509060016 | 55 | 290 | 0.0 | 0.0 | 0.00 | 0.00 | 0.00 | 1023.1 | |
| 20260509055917 | 55 | 290 | 0.0 | 0.0 | 0.00 | 0.00 | 0.00 | 1023.1 | |
| 20260509055515 | 55 | 290 | 0.0 | 0.0 | 0.00 | 0.00 | 0.00 | 1023.1 | |
| 20260509055417 | 55 | 290 | 0.0 | 0.0 | 0.00 | 0.00 | 0.00 | 1023.1 | |
| 20260509055016 | 55 | 290 | 0.0 | 0.0 | 0.00 | 0.00 | 0.00 | 1023.0 | |
| 20260509054918 | 55 | 290 | 0.0 | 0.0 | 0.00 | 0.00 | 0.00 | 1023.1 | |
| 20260509054519 | 55 | 290 | 0.0 | 0.0 | 0.00 | 0.00 | 0.00 | 1023.0 | |
| 20260509054422 | 55 | 290 | 0.0 | 0.0 | 0.00 | 0.00 | 0.00 | 1023.0 | |
| 20260509054021 | 55 | 290 | 0.0 | 0.0 | 0.00 | 0.00 | 0.00 | 1023.1 | |
| 20260509053923 | 55 | 290 | 0.0 | 0.0 | 0.00 | 0.00 | 0.00 | 1023.1 | |
| 20260509053524 | 55 | 290 | 0.0 | 0.0 | 0.00 | 0.00 | 0.00 | 1023.1 | |
| 20260509053426 | 55 | 290 | 0.0 | 0.0 | 0.00 | 0.00 | 0.00 | 1023.2 | |
| 20260509053029 | 55 | 290 | 0.0 | 0.0 | 0.00 | 0.00 | 0.00 | 1023.1 | |
| 20260509052930 | 55 | 290 | 0.0 | 0.0 | 0.00 | 0.00 | 0.00 | 1023.2 | |
| 20260509052530 | 55 | 290 | 0.0 | 0.0 | 0.00 | 0.00 | 0.00 | 1023.2 | |
| 20260509052433 | 55 | 290 | 0.0 | 0.0 | 0.00 | 0.00 | 0.00 | 1023.2 | |
| 20260509052033 | 55 | 290 | 0.0 | 0.0 | 0.00 | 0.00 | 0.00 | 1023.3 | |
| 20260509051915 | 55 | 290 | 0.0 | 0.0 | 0.00 | 0.00 | 0.00 | 1023.2 | |
| 20260509051516 | 55 | 290 | 0.0 | 0.0 | 0.00 | 0.00 | 0.00 | 1023.1 | |
| 20260509051436 | 55 | 290 | 0.0 | 0.0 | 0.00 | 0.00 | 0.00 | 1023.1 | |
| 20260509051030 | 56 | 290 | 0.0 | 0.0 | 0.00 | 0.00 | 0.00 | 1023.1 | |
| 20260509050937 | 56 | 290 | 0.0 | 0.0 | 0.00 | 0.00 | 0.00 | 1023.1 | |
| 20260509050533 | 56 | 290 | 0.0 | 0.0 | 0.00 | 0.00 | 0.00 | 1023.1 | |
| 20260509050418 | 56 | 290 | 0.0 | 0.0 | 0.00 | 0.00 | 0.00 | 1023.0 | |
| 20260509050025 | 56 | 290 | 0.0 | 0.0 | 0.00 | 0.00 | 0.00 | 1023.0 | |
| 20260509045925 | 56 | 290 | 0.0 | 0.0 | 0.00 | 0.00 | 0.00 | 1023.0 | |
| 20260509045522 | 56 | 290 | 0.0 | 0.0 | 0.00 | 0.00 | 0.00 | 1023.0 | |
| 20260509045419 | 56 | 290 | 0.0 | 0.0 | 0.00 | 0.00 | 0.00 | 1023.0 | |
| 20260509045017 | 56 | 290 | 0.0 | 0.0 | 0.00 | 0.00 | 0.00 | 1023.0 | |
| 20260509044919 | 56 | 290 | 0.0 | 0.0 | 0.00 | 0.00 | 0.00 | 1023.0 | |
| 20260509044520 | 56 | 290 | 0.0 | 0.0 | 0.00 | 0.00 | 0.00 | 1023.1 | |
| 20260509044421 | 57 | 290 | 0.0 | 0.0 | 0.00 | 0.00 | 0.00 | 1023.1 | |
| 20260509044020 | 57 | 290 | 0.0 | 0.0 | 0.00 | 0.00 | 0.00 | 1023.1 | |
| 20260509043922 | 57 | 290 | 0.0 | 0.0 | 0.00 | 0.00 | 0.00 | 1023.1 | |
| 20260509043523 | 57 | 290 | 0.0 | 0.0 | 0.00 | 0.00 | 0.00 | 1022.9 | |
| 20260509043426 | 57 | 290 | 0.0 | 0.0 | 0.00 | 0.00 | 0.00 | 1023.0 | |
| 20260509043024 | 57 | 290 | 0.0 | 0.0 | 0.00 | 0.00 | 0.00 | 1022.9 | |
| 20260509042923 | 57 | 290 | 0.0 | 0.0 | 0.00 | 0.00 | 0.00 | 1023.0 | |
| 20260509042523 | 57 | 290 | 0.0 | 0.0 | 0.00 | 0.00 | 0.00 | 1023.0 | |
| 20260509042423 | 57 | 290 | 0.0 | 0.0 | 0.00 | 0.00 | 0.00 | 1023.0 | |
| 20260509042019 | 57 | 290 | 0.0 | 0.0 | 0.00 | 0.00 | 0.00 | 1023.0 | |
| 20260509041922 | 57 | 290 | 0.0 | 0.0 | 0.00 | 0.00 | 0.00 | 1023.0 | |
| 20260509041522 | 58 | 290 | 0.0 | 0.0 | 0.00 | 0.00 | 0.00 | 1023.0 | |
| 20260509041426 | 58 | 290 | 0.0 | 0.0 | 0.00 | 0.00 | 0.00 | 1023.0 | |
| 20260509041016 | 58 | 290 | 0.0 | 0.0 | 0.00 | 0.00 | 0.00 | 1022.9 | |
| 20260509040920 | 58 | 290 | 0.0 | 0.0 | 0.00 | 0.00 | 0.00 | 1022.9 | |
| 20260509040515 | 58 | 290 | 0.0 | 0.0 | 0.00 | 0.00 | 0.00 | 1023.0 | |
| 20260509040418 | 58 | 290 | 0.0 | 0.0 | 0.00 | 0.00 | 0.00 | 1023.0 | |
| 20260509040023 | 58 | 290 | 0.0 | 0.0 | 0.00 | 0.00 | 0.00 | 1023.1 | |
| 20260509035921 | 58 | 290 | 0.0 | 0.0 | 0.00 | 0.00 | 0.00 | 1023.0 | |
| 20260509035521 | 58 | 290 | 0.0 | 0.0 | 0.00 | 0.00 | 0.00 | 1023.0 | |
| 20260509035421 | 58 | 290 | 0.0 | 0.0 | 0.00 | 0.00 | 0.00 | 1023.0 | |
| 20260509035020 | 59 | 290 | 0.0 | 0.0 | 0.00 | 0.00 | 0.00 | 1022.9 | |
| 20260509034922 | 59 | 290 | 0.0 | 0.0 | 0.00 | 0.00 | 0.00 | 1022.9 | |
| 20260509034521 | 59 | 290 | 0.0 | 0.0 | 0.00 | 0.00 | 0.00 | 1022.9 | |
| 20260509034422 | 59 | 290 | 0.0 | 0.0 | 0.00 | 0.00 | 0.00 | 1022.9 | |
| 20260509034021 | 59 | 290 | 0.0 | 0.0 | 0.00 | 0.00 | 0.00 | 1022.9 | |
| 20260509033923 | 59 | 290 | 0.0 | 0.0 | 0.00 | 0.00 | 0.00 | 1023.0 | |
| 20260509033524 | 59 | 290 | 0.0 | 0.0 | 0.00 | 0.00 | 0.00 | 1022.9 | |
| 20260509033424 | 60 | 290 | 0.0 | 0.0 | 0.00 | 0.00 | 0.00 | 1022.9 | |
| 20260509033022 | 60 | 290 | 0.0 | 0.0 | 0.00 | 0.00 | 0.00 | 1022.9 | |
| 20260509032921 | 60 | 290 | 0.0 | 0.0 | 0.00 | 0.00 | 0.00 | 1022.9 | |
| 20260509032521 | 60 | 290 | 0.0 | 0.0 | 0.00 | 0.00 | 0.00 | 1022.7 | |
| 20260509032421 | 60 | 290 | 0.0 | 0.0 | 0.00 | 0.00 | 0.00 | 1022.7 | |
| 20260509032020 | 60 | 290 | 0.0 | 0.0 | 0.00 | 0.00 | 0.00 | 1022.8 | |
| 20260509031921 | 60 | 290 | 0.0 | 0.0 | 0.00 | 0.00 | 0.00 | 1022.9 | |
| 20260509031516 | 60 | 290 | 0.0 | 0.0 | 0.00 | 0.00 | 0.00 | 1022.9 | |
| 20260509031420 | 60 | 290 | 0.0 | 0.0 | 0.00 | 0.00 | 0.00 | 1022.9 | |
| 20260509031016 | 60 | 290 | 0.0 | 0.0 | 0.00 | 0.00 | 0.00 | 1022.8 | |
| 20260509030921 | 60 | 290 | 0.0 | 0.0 | 0.00 | 0.00 | 0.00 | 1022.8 | |
| 20260509030519 | 60 | 290 | 0.0 | 0.0 | 0.00 | 0.00 | 0.00 | 1022.8 | |
| 20260509030418 | 60 | 290 | 0.0 | 0.0 | 0.00 | 0.00 | 0.00 | 1022.9 | |
| 20260509030029 | 60 | 290 | 0.0 | 0.0 | 0.00 | 0.00 | 0.00 | 1022.9 | |
| 20260509025928 | 60 | 290 | 0.0 | 0.0 | 0.00 | 0.00 | 0.00 | 1022.9 | |
| 20260509025527 | 60 | 288 | 0.0 | 0.0 | 0.00 | 0.00 | 0.00 | 1022.8 | |
| 20260509025427 | 60 | 288 | 0.0 | 0.0 | 0.00 | 0.00 | 0.00 | 1022.9 | |
| 20260509025024 | 60 | 288 | 0.0 | 0.0 | 0.00 | 0.00 | 0.00 | 1022.9 | |
| 20260509024926 | 60 | 288 | 0.0 | 0.0 | 0.00 | 0.00 | 0.00 | 1022.9 | |
| 20260509024524 | 60 | 288 | 0.0 | 0.0 | 0.00 | 0.00 | 0.00 | 1023.0 | |
| 20260509024425 | 60 | 288 | 0.0 | 0.0 | 0.00 | 0.00 | 0.00 | 1023.0 | |
| 20260509024027 | 60 | 290 | 0.0 | 0.0 | 0.00 | 0.00 | 0.00 | 1023.0 | |
| 20260509023929 | 60 | 290 | 0.0 | 0.0 | 0.00 | 0.00 | 0.00 | 1022.9 | |
| 20260509023531 | 60 | 289 | 0.0 | 0.0 | 0.00 | 0.00 | 0.00 | 1022.9 | |
| 20260509023433 | 60 | 289 | 0.0 | 0.0 | 0.00 | 0.00 | 0.00 | 1022.9 | |
| 20260509023032 | 60 | 280 | 0.0 | 0.0 | 0.00 | 0.00 | 0.00 | 1022.9 | |
| 20260509022931 | 60 | 280 | 0.0 | 0.0 | 0.00 | 0.00 | 0.00 | 1022.9 | |
| 20260509022528 | 60 | 280 | 0.0 | 0.0 | 0.00 | 0.00 | 0.00 | 1023.0 | |
| 20260509022429 | 60 | 280 | 0.0 | 0.0 | 0.00 | 0.00 | 0.00 | 1023.0 | |
| 20260509022026 | 60 | 280 | 0.0 | 0.0 | 0.00 | 0.00 | 0.00 | 1023.0 | |
| 20260509021926 | 60 | 280 | 0.0 | 0.0 | 0.00 | 0.00 | 0.00 | 1023.0 | |
| 20260509021520 | 60 | 276 | 0.0 | 0.0 | 0.00 | 0.00 | 0.00 | 1023.1 | |
| 20260509021424 | 60 | 276 | 0.0 | 0.0 | 0.00 | 0.00 | 0.00 | 1023.0 | |
| 20260509021018 | 60 | 281 | 0.0 | 0.0 | 0.00 | 0.00 | 0.00 | 1023.0 | |
| 20260509020921 | 60 | 281 | 0.0 | 0.0 | 0.00 | 0.00 | 0.00 | 1023.0 | |
| 20260509020515 | 61 | 266 | 0.0 | 0.0 | 0.00 | 0.00 | 0.00 | 1023.0 | |
| 20260509020418 | 61 | 266 | 0.0 | 0.0 | 0.00 | 0.00 | 0.00 | 1023.0 | |
| 20260509020029 | 61 | 266 | 0.0 | 0.0 | 0.00 | 0.00 | 0.00 | 1023.1 | |
| 20260509015931 | 61 | 266 | 0.0 | 0.0 | 0.00 | 0.00 | 0.00 | 1023.1 | |
| 20260509015532 | 61 | 266 | 0.0 | 0.0 | 0.00 | 0.00 | 0.00 | 1023.1 | |
| 20260509015415 | 61 | 266 | 0.0 | 0.0 | 0.00 | 0.00 | 0.00 | 1023.1 | |
| 20260509015016 | 61 | 266 | 0.0 | 0.0 | 0.00 | 0.00 | 0.00 | 1022.9 | |
| 20260509014916 | 61 | 266 | 0.0 | 0.0 | 0.00 | 0.00 | 0.00 | 1022.9 | |
| 20260509014519 | 61 | 266 | 0.0 | 0.0 | 0.00 | 0.00 | 0.00 | 1022.9 | |
| 20260509014421 | 61 | 266 | 0.0 | 0.0 | 0.00 | 0.00 | 0.00 | 1022.9 | |
| 20260509014021 | 61 | 265 | 0.0 | 0.0 | 0.00 | 0.00 | 0.00 | 1022.8 | |
| 20260509013923 | 61 | 265 | 0.0 | 0.0 | 0.00 | 0.00 | 0.00 | 1022.8 | |
| 20260509013523 | 61 | 265 | 0.0 | 0.0 | 0.00 | 0.00 | 0.00 | 1022.8 | |
| 20260509013421 | 61 | 265 | 0.0 | 0.0 | 0.00 | 0.00 | 0.00 | 1022.8 | |
| 20260509013019 | 61 | 265 | 0.0 | 0.0 | 0.00 | 0.00 | 0.00 | 1022.9 | |
| 20260509012918 | 61 | 265 | 0.0 | 0.0 | 0.00 | 0.00 | 0.00 | 1022.9 | |
| 20260509012518 | 61 | 265 | 0.0 | 0.0 | 0.00 | 0.00 | 0.00 | 1022.9 | |
| 20260509012418 | 61 | 272 | 0.0 | 0.0 | 0.00 | 0.00 | 0.00 | 1022.9 | |
| 20260509012017 | 61 | 274 | 0.0 | 0.0 | 0.00 | 0.00 | 0.00 | 1022.9 | |
| 20260509011919 | 61 | 285 | 0.0 | 0.0 | 0.00 | 0.00 | 0.00 | 1023.0 | |
| 20260509011518 | 61 | 288 | 0.0 | 0.0 | 0.00 | 0.00 | 0.00 | 1023.1 | |
| 20260509011416 | 62 | 288 | 0.0 | 0.0 | 0.00 | 0.00 | 0.00 | 1023.1 | |
| 20260509011030 | 62 | 279 | 0.0 | 0.0 | 0.00 | 0.00 | 0.00 | 1023.1 |